Home   Weather   Basseterre   Past weeks

Flag for Saint Kitts and Nevis Past Weather in Basseterre, Saint Kitts and Nevis — Yesterday and Last 2 Weeks

Now
79 °F

Warm.


Feels Like: 82 °F
Forecast: 77 / 83 °F
Wind: 15 mph from Northeast

Location: Roosevelt Airport / Saint Eustatius

Current Time: Apr 28, 2017 at 12:42:37 am

Latest Report: Apr 27, 2017 at 11:55 pm


Visibility: N/A

Pressure: 30.01 "Hg

Humidity: 84%

Dew Point: 73 °F

Location of BasseterreLocation

Past Weather in Basseterre — Graph

°F

Basseterre Temperature Yesterday

Maximum temperature yesterday: 88 °F (at 1:55 pm)
Minimum temperature yesterday: 77 °F (at 12:55 am)
Average temperature yesterday: 81 °F

High & Low Weather Summary for the Past Weeks

 TemperatureHumidityPressure
High88 °F (Apr 14, 1:55 pm)100% (Apr 13, 3:55 am)30.04 "Hg (Apr 13, 3:55 am)
Low72 °F (Apr 13, 1:55 am)51% (Apr 19, 9:55 am)29.89 "Hg (Apr 13, 2:55 pm)
Average79 °F75%29.97 "Hg
* Reported Apr 12 10:55 pm — Apr 27 10:55 pm, Basseterre, Weather by CustomWeather, © 2017

Note: Actual official high and low records may vary slightly from our data, if they occured in-between our weather recording intervals... More about our weather records

Advertising

Basseterre Weather History for the Previous 24 Hours

Scroll right to see more
 ConditionsComfort  
Time TempWeatherWind HumidityBarometerVisibility
10:55 pm
Thu, Apr 27
79 °FWarm.16 mph79%30.01 "HgN/A
9:55 pm79 °FWarm.17 mph79%30.01 "HgN/A
8:55 pm79 °FWarm.17 mph79%30.01 "HgN/A
7:55 pm79 °FWarm.15 mph84%30.01 "HgN/A
6:55 pm79 °FWarm.15 mph79%29.98 "HgN/A
5:55 pm81 °FWarm.16 mph79%29.98 "HgN/A
4:55 pm82 °FWarm.17 mph74%29.95 "HgN/A
3:55 pm84 °FWarm.17 mph70%29.98 "HgN/A
2:55 pm86 °FWarm.16 mph66%29.98 "HgN/A
1:55 pm88 °FWarm.16 mph62%29.98 "HgN/A
12:55 pm86 °FWarm.17 mph66%30.01 "HgN/A
11:55 am86 °FWarm.16 mph70%30.01 "HgN/A
10:55 am86 °FWarm.17 mph66%30.04 "HgN/A
9:55 am86 °FWarm.15 mph70%30.04 "HgN/A
8:55 am84 °FWarm.15 mph70%30.01 "HgN/A
7:55 am82 °FWarm.16 mph74%30.01 "HgN/A
6:55 am81 °FWarm.13 mph79%30.01 "HgN/A
5:55 am77 °FWarm.12 mph89%29.98 "HgN/A
4:55 am77 °FWarm.14 mph83%29.95 "HgN/A
3:55 am77 °FWarm.14 mph83%29.95 "HgN/A
2:55 am77 °FWarm.13 mph83%29.95 "HgN/A
1:55 am77 °FWarm.13 mph83%29.98 "HgN/A
12:55 am77 °FWarm.14 mph83%29.98 "HgN/A
Weather by CustomWeather, © 2017

See weather overviewHow to use our weather pages